Location: Mentone
(34.5413°N, 85.5351°W)
Time: 11:06:23
(UTC-05:00)

Amateur Radio Satellites - All Passes

Search period start: 29 March 2015 10:36
Search period end: 30 March 2015 10:36
Location: Mentone, 34.5413°N, 85.5351°W

Satellite Date Start Highest point End Downlink Frequencies (MHz)
Time Altitude Azimuth
AIST 2 29 Mar 10:39:10 10:43:12 45° 114° (ESE) 10:47:19 435.215
NANOSAT C BR1 29 Mar 10:40:31 10:44:31 44° 74° (ENE) 10:48:33 145.865
UNISAT 6 29 Mar 10:41:13 10:45:28 84° 258° (WSW) 10:49:47 437.425
UKube-1 29 Mar 10:42:38 10:46:50 49° 100° (E) 10:51:02 .
POLYITAN 1 29 Mar 10:44:29 10:48:33 51° 75° (ENE) 10:52:40 437.675
AAUSAT CUBESAT 2 29 Mar 10:49:20 10:52:26 19° 289° (WNW) 10:55:25 437.432
TIGRISAT 29 Mar 10:51:38 10:55:50 64° 259° (W) 11:00:05 435.000
HUMSAT D 29 Mar 10:51:45 10:55:50 45° 99° (E) 10:59:58 437.325/437.525
DX 1 29 Mar 10:52:29 10:56:49 71° 102° (ESE) 11:01:07 434.975-435.025
SEEDS 29 Mar 10:54:38 10:56:36 13° 292° (WNW) 10:58:22 437.485
BEESAT 2 29 Mar 11:07:04 11:10:38 27° 306° (NW) 11:14:12 435.950
VERMONT LUNAR 29 Mar 11:12:28 11:15:38 38° 211° (SSW) 11:18:47 437.305
Oscar 11 29 Mar 11:12:53 11:16:26 24° 289° (WNW) 11:19:52 145.826/435.025
CINEMA 3 29 Mar 11:19:04 11:21:46 15° 290° (WNW) 11:24:20 145.822/145.860
QB50P1 29 Mar 11:21:49 11:25:57 54° 260° (W) 11:30:05 145.935-145.965
FUNcube-1 29 Mar 11:22:30 11:26:34 37° 286° (WNW) 11:30:39 145.935
ANTELSAT 29 Mar 11:22:34 11:26:12 26° 265° (W) 11:29:48 437.575/2403.000
DUCHIFAT 1 29 Mar 11:23:48 11:27:55 52° 260° (W) 11:32:02 145.980
UWE-3 29 Mar 11:26:35 11:30:20 27° 288° (WNW) 11:34:06 435.000/436.395/437.385
CUBEBUG 2 29 Mar 11:31:39 11:34:58 20° 289° (WNW) 11:38:12 437.445
VELOX 1 29 Mar 11:31:43 11:36:08 82° 102° (ESE) 11:40:32 145.980
CUBEBUG 1 29 Mar 11:32:36 11:36:32 34° 97° (E) 11:40:29 437.445
ZACube-1 29 Mar 11:35:38 11:39:20 26° 288° (WNW) 11:43:01 437.345
HO-68 29 Mar 11:35:39 11:39:19 14° 301° (WNW) 11:42:33 435.675
AISAT 29 Mar 11:36:19 11:40:44 85° 283° (WNW) 11:45:08 437.250
QB50P2 29 Mar 11:36:55 11:40:48 34° 263° (W) 11:44:39 145.880/145.840
50 SAT 29 Mar 11:40:04 11:44:05 68° 284° (WNW) 11:48:07 437.505
SPROUT 29 Mar 11:45:11 11:45:42 10° 90° (E) 11:46:32 437.525
BEESAT 3 29 Mar 11:47:41 11:48:29 10° 315° (NW) 11:49:04 437.485
PHONESAT 2.4 29 Mar 11:51:24 11:54:51 49° 209° (SSW) 11:58:18 2401.200-2431.200
ESTCUBE 1 29 Mar 12:05:17 12:09:49 83° 281° (WNW) 12:14:18 437.505/2401.250
BUGSAT 1 29 Mar 12:06:21 12:09:42 22° 265° (W) 12:12:54 437.445
POPSAT HIP 1 29 Mar 12:07:08 12:09:52 16° 267° (W) 12:12:25 437.405
YUBILEINY 29 Mar 12:16:58 12:21:47 17° 82° (E) 12:27:13 435.215
NANOSAT C BR1 29 Mar 12:18:56 12:20:40 12° 269° (W) 12:22:09 145.865
AIST 2 29 Mar 12:19:19 12:22:05 16° 312° (NW) 12:24:43 435.215
UKube-1 29 Mar 12:20:44 12:22:37 12° 293° (WNW) 12:24:15 .
POLYITAN 1 29 Mar 12:24:11 12:24:52 10° 270° (W) 12:25:14 437.675
HUMSAT D 29 Mar 12:29:11 12:31:17 13° 291° (WNW) 12:33:11 437.325/437.525
Oscar 19 29 Mar 12:36:19 12:40:24 26° 69° (ENE) 12:44:37 437.125/150
ITUPSAT 1 29 Mar 13:06:34 13:07:45 11° 90° (E) 13:09:15 437.325
TISAT 1 29 Mar 13:07:54 13:12:06 85° 283° (WNW) 13:16:18 437.305
CUBEBUG 1 29 Mar 13:09:48 13:12:40 17° 291° (WNW) 13:15:23 437.445
SPROUT 29 Mar 13:18:01 13:22:11 52° 285° (WNW) 13:26:21 437.525
ITAMSAT 1 29 Mar 13:40:59 13:45:40 35° 71° (ENE) 13:50:24 435.822/435.867
SWISSCUBE 29 Mar 13:51:42 13:56:13 42° 98° (E) 14:00:44 437.505
BEESAT 29 Mar 13:54:40 13:59:11 41° 98° (E) 14:03:42 436.000
PCSat 29 Mar 13:55:43 14:00:24 32° 109° (ESE) 14:05:11 145.827
O/OREOS (USA 219) 29 Mar 14:03:47 14:08:16 56° 68° (ENE) 14:12:41 437.305
YUBILEINY 29 Mar 14:08:53 14:17:43 82° 278° (W) 14:26:35 435.215
Oscar 19 29 Mar 14:15:06 14:19:39 31° 264° (W) 14:24:09 437.125/150
JUGNU 29 Mar 14:25:58 14:29:44 17° 173° (S) 14:33:34 437.505
Gurwin Techsat 1B 29 Mar 14:29:07 14:34:26 83° 76° (ENE) 14:39:47 435.225
STARS 29 Mar 14:37:47 14:39:12 12° 91° (E) 14:40:54 437.465
ITUPSAT 1 29 Mar 14:41:23 14:46:08 61° 286° (WNW) 14:50:50 437.325
AO-7 29 Mar 14:48:10 14:55:05 32° 63° (ENE) 15:02:12 29.400- 29.500
HORYU 2 29 Mar 15:10:56 15:15:10 47° 74° (ENE) 15:19:28 437.375
ITAMSAT 1 29 Mar 15:21:03 15:25:15 24° 266° (W) 15:29:19 435.822/435.867
SRMSAT 29 Mar 15:25:42 15:28:55 15° 170° (S) 15:32:13 437.500
SWISSCUBE 29 Mar 15:30:35 15:33:47 17° 292° (WNW) 15:36:47 437.505
BEESAT 29 Mar 15:33:31 15:36:45 18° 292° (WNW) 15:39:48 436.000
AIST 1 29 Mar 15:36:18 15:40:37 86° 264° (W) 15:44:53
PCSat 29 Mar 15:39:02 15:43:48 30° 305° (NW) 15:48:32 145.827
KKS-1 29 Mar 15:39:43 15:44:09 74° 284° (WNW) 15:48:35 437.445
O/OREOS (USA 219) 29 Mar 15:46:10 15:47:14 11° 261° (W) 15:47:59 437.305
JAS-2 29 Mar 15:53:33 16:00:09 61° 72° (ENE) 16:07:34 435.910
STARS 29 Mar 16:11:45 16:16:01 50° 286° (WNW) 16:20:16 437.465
YUBILEINY 29 Mar 16:11:52 16:16:13 14° 298° (WNW) 16:19:52 435.215
JUGNU 29 Mar 16:14:00 16:18:06 19° 183° (S) 16:22:11 437.505
AO-7 29 Mar 16:39:31 16:47:35 52° 259° (WSW) 16:55:37 29.400- 29.500
HORYU 2 29 Mar 16:50:07 16:52:10 12° 269° (W) 16:53:56 437.375
M-CUBED/EXP-1 PRIME 29 Mar 16:57:15 16:59:04 12° 94° (E) 17:01:09 437.505
SRMSAT 29 Mar 17:13:20 17:17:26 19° 179° (S) 17:21:32 437.500
MOZHAYETS 4 29 Mar 17:15:11 17:19:49 63° 101° (E) 17:24:23
JAS-2 29 Mar 17:40:42 17:45:51 22° 272° (W) 17:51:06 435.910
CUTE-I 29 Mar 17:41:51 17:46:46 39° 72° (ENE) 17:51:45 437.470
Cubesat XI-IV 29 Mar 17:42:03 17:46:59 40° 72° (ENE) 17:52:00 437.490
JUGNU 29 Mar 18:03:36 18:06:27 13° 192° (SSW) 18:09:11 437.505
AUBIESAT-1 29 Mar 18:04:59 18:09:47 64° 104° (ESE) 18:14:25 437.475
PRISM 29 Mar 18:13:35 18:14:54 12° 91° (E) 18:16:28 437.425
SO-50 29 Mar 18:14:33 18:18:47 39° 114° (ESE) 18:23:12 436.795
STRAND 1 29 Mar 18:19:51 18:20:14 10° 89° (E) 18:21:02 437.568
GONETS M04 29 Mar 18:28:21 18:35:17 29° 86° (E) 18:42:33
BEESAT 3 29 Mar 18:29:11 18:31:47 16° 49° (NE) 18:34:27 437.485
M-CUBED/EXP-1 PRIME 29 Mar 18:29:35 18:34:24 61° 289° (WNW) 18:39:02 437.505
RS-15 29 Mar 18:39:28 18:50:05 62° 113° (ESE) 19:00:51 29.354- 29.394
MOZHAYETS 4 29 Mar 18:55:03 18:56:34 11° 294° (WNW) 18:57:47
SRMSAT 29 Mar 19:02:26 19:05:56 16° 189° (S) 19:09:23 437.500
CUBESAT XI-V 29 Mar 19:02:44 19:07:20 66° 101° (E) 19:11:55 437.345
AIST 2 29 Mar 19:05:54 19:07:40 12° 46° (NE) 19:09:37 435.215
CUTE-I 29 Mar 19:22:49 19:27:00 22° 266° (W) 19:31:02 437.470
Cubesat XI-IV 29 Mar 19:23:07 19:27:16 22° 266° (W) 19:31:15 437.490
BEESAT 2 29 Mar 19:29:09 19:33:15 60° 59° (ENE) 19:37:16 435.950
GOMX 1 29 Mar 19:38:19 19:40:52 16° 71° (ENE) 19:43:33 467.674
CUTE 1.7 + AOD 2 29 Mar 19:39:19 19:40:54 12° 68° (ENE) 19:42:44 437.475
AUBIESAT-1 29 Mar 19:41:39 19:44:05 13° 299° (WNW) 19:46:14 437.475
PRISM 29 Mar 19:46:42 19:50:42 44° 286° (WNW) 19:54:38 437.425
STRAND 1 29 Mar 19:54:58 20:00:04 72° 285° (WNW) 20:05:07 437.568
SO-50 29 Mar 19:55:56 19:59:31 21° 311° (NW) 20:03:05 436.795
AAUSAT CUBESAT 2 29 Mar 20:02:37 20:04:28 13° 69° (ENE) 20:06:32 437.432
BEESAT 3 29 Mar 20:06:12 20:10:03 39° 246° (WSW) 20:13:48 437.485
SEEDS 29 Mar 20:06:31 20:09:39 21° 71° (ENE) 20:12:56 437.485
HO-68 29 Mar 20:09:41 20:16:30 51° 70° (ENE) 20:23:25 435.675
GONETS M04 29 Mar 20:23:21 20:31:46 52° 282° (WNW) 20:40:12
COMPASS 1 29 Mar 20:28:00 20:31:39 30° 73° (ENE) 20:35:23 437.405
BRITE-PL 29 Mar 20:28:39 20:33:30 84° 258° (WSW) 20:37:59 437.365/2234.400
Oscar 11 29 Mar 20:29:52 20:31:45 13° 68° (ENE) 20:33:50 145.826/435.025
CINEMA 3 29 Mar 20:40:01 20:43:23 24° 72° (ENE) 20:46:47 145.822/145.860
AIST 2 29 Mar 20:42:33 20:46:44 61° 244° (WSW) 20:50:49 435.215
CUBESAT XI-V 29 Mar 20:43:16 20:44:17 10° 294° (WNW) 20:45:00 437.345
UWE-3 29 Mar 20:46:34 20:47:53 12° 68° (ENE) 20:49:26 435.000/436.395/437.385
DANDE 29 Mar 20:48:26 20:51:31 35° 97° (E) 20:54:09 436.750
CUBEBUG 2 29 Mar 20:50:54 20:53:28 17° 70° (ENE) 20:56:09 437.445
RS-15 29 Mar 20:53:18 21:03:08 36° 315° (NW) 21:12:57 29.354- 29.394
ZACube-1 29 Mar 20:54:35 20:55:51 11° 68° (ENE) 20:57:21 437.345
CANX-2 29 Mar 20:58:21 21:02:32 64° 260° (W) 21:06:45 2200.000
DOVE 4 29 Mar 21:01:38 21:06:03 85° 258° (WSW) 21:10:17 437.250
CUTE 1.7 + AOD 2 29 Mar 21:12:23 21:16:27 47° 261° (W) 21:20:34 437.475
DELFI C3 29 Mar 21:13:50 21:17:23 31° 73° (ENE) 21:21:01 145.870
GOMX 1 29 Mar 21:14:32 21:18:50 38° 262° (W) 21:22:52 467.674
UKube-1 29 Mar 21:34:32 21:38:10 27° 71° (ENE) 21:41:54 .
AAUSAT CUBESAT 2 29 Mar 21:35:49 21:39:46 42° 262° (W) 21:43:46 437.432
CUSAT 1 29 Mar 21:40:59 21:42:58 16° 282° (WNW) 21:44:44 437.405
HUMSAT D 29 Mar 21:41:17 21:44:13 20° 71° (ENE) 21:47:18 437.325/437.525
SEEDS 29 Mar 21:41:50 21:45:22 25° 265° (W) 21:48:52 437.485
DX 1 29 Mar 21:44:44 21:48:47 38° 73° (ENE) 21:52:51 434.975-435.025
HO-68 29 Mar 21:58:39 22:04:33 26° 266° (W) 22:10:14 435.675
Oscar 11 29 Mar 22:03:26 22:07:34 46° 261° (W) 22:11:45 145.826/435.025
ISS 29 Mar 22:03:33 22:06:46 61° 135° (SE) 22:09:59 145.825
COMPASS 1 29 Mar 22:04:36 22:07:27 17° 267° (W) 22:10:10 437.405
FUNcube-1 29 Mar 22:14:41 22:18:48 72° 258° (WSW) 22:22:57 145.935
CINEMA 3 29 Mar 22:17:17 22:20:35 21° 265° (W) 22:23:44 145.822/145.860
UWE-3 29 Mar 22:20:05 22:24:05 46° 261° (W) 22:28:05 435.000/436.395/437.385
50 SAT 29 Mar 22:22:48 22:26:27 40° 74° (ENE) 22:30:10 437.505
VELOX 1 29 Mar 22:25:55 22:30:10 46° 74° (ENE) 22:34:26 145.980
CUBEBUG 1 29 Mar 22:26:07 22:29:16 20° 70° (ENE) 22:32:32 437.445
CUBEBUG 2 29 Mar 22:26:14 22:29:58 31° 263° (W) 22:33:40 437.445
ZACube-1 29 Mar 22:27:52 22:31:52 47° 261° (W) 22:35:53 437.345
AISAT 29 Mar 22:30:40 22:35:01 55° 75° (ENE) 22:39:22 437.250
POLYITAN 1 29 Mar 22:35:58 22:37:05 11° 91° (E) 22:38:29 437.675
UNISAT 6 29 Mar 22:36:53 22:40:45 27° 96° (E) 22:44:45 437.425
TIGRISAT 29 Mar 22:46:45 22:50:53 34° 97° (E) 22:55:09 435.000
PCSat 29 Mar 22:48:10 22:50:50 14° 47° (NE) 22:53:44 145.827
DELFI C3 29 Mar 22:50:02 22:52:40 16° 267° (W) 22:55:10 145.870
ESTCUBE 1 29 Mar 23:01:17 23:05:44 58° 75° (ENE) 23:10:13 437.505/2401.250
QB50P1 29 Mar 23:10:47 23:14:30 30° 97° (E) 23:18:16 145.935-145.965
UKube-1 29 Mar 23:10:59 23:14:20 21° 265° (W) 23:17:35 .
DUCHIFAT 1 29 Mar 23:12:24 23:16:08 30° 97° (E) 23:19:54 145.980
RS-15 29 Mar 23:16:07 23:20:26 12° 348° (NNW) 23:24:30 29.354- 29.394
HUMSAT D 29 Mar 23:16:26 23:19:53 25° 265° (W) 23:23:17 437.325/437.525
ANTELSAT 29 Mar 23:16:54 23:21:32 79° 103° (ESE) 23:26:13 437.575/2403.000
DX 1 29 Mar 23:22:36 23:25:14 15° 267° (W) 23:27:40 434.975-435.025
QB50P2 29 Mar 23:25:28 23:29:34 47° 100° (E) 23:33:40 145.880/145.840
ISS 29 Mar 23:41:31 23:43:27 15° 331° (NNW) 23:45:20 145.825
BUGSAT 1 29 Mar 23:51:11 23:55:11 66° 101° (E) 23:59:12 437.445
POPSAT HIP 1 29 Mar 23:54:03 23:58:17 77° 282° (WNW) 00:02:30 437.405
TISAT 1 29 Mar 23:56:44 00:00:44 43° 74° (ENE) 00:04:45 437.305
50 SAT 30 Mar 00:00:20 00:01:38 11° 269° (W) 00:02:42 437.505
CUBEBUG 1 30 Mar 00:01:33 00:05:28 30° 263° (W) 00:09:20 437.445
NANOSAT C BR1 30 Mar 00:04:34 00:08:42 56° 285° (WNW) 00:12:50 145.865
VELOX 1 30 Mar 00:04:53 00:07:03 13° 269° (W) 00:08:57 145.980
SPROUT 30 Mar 00:08:24 00:12:41 74° 77° (ENE) 00:16:58 437.525
POLYITAN 1 30 Mar 00:09:14 00:13:20 48° 285° (WNW) 00:17:26 437.675
AISAT 30 Mar 00:10:48 00:12:01 11° 270° (W) 00:12:55 437.250
UNISAT 6 30 Mar 00:13:41 00:17:28 25° 289° (WNW) 00:21:12 437.425
YUBILEINY 30 Mar 00:23:54 00:32:07 43° 76° (ENE) 00:40:22 435.215
TIGRISAT 30 Mar 00:24:04 00:27:28 20° 290° (WNW) 00:30:45 435.000
PCSat 30 Mar 00:29:32 00:34:59 80° 246° (WSW) 00:40:23 145.827
ESTCUBE 1 30 Mar 00:41:58 00:43:04 11° 270° (W) 00:43:50 437.505/2401.250
QB50P1 30 Mar 00:47:13 00:50:12 18° 290° (WNW) 00:53:04 145.935-145.965
DUCHIFAT 1 30 Mar 00:48:51 00:51:47 18° 290° (WNW) 00:54:35 145.980
Oscar 19 30 Mar 00:53:14 00:54:41 11° 89° (E) 00:56:31 437.125/150
SWISSCUBE 30 Mar 00:55:02 00:59:16 33° 72° (ENE) 01:03:35 437.505
BEESAT 30 Mar 00:57:57 01:02:10 32° 71° (ENE) 01:06:27 436.000
QB50P2 30 Mar 01:03:15 01:05:07 12° 292° (WNW) 01:06:45 145.880/145.840
RS-15 30 Mar 01:33:15 01:39:42 17° 25° (NNE) 01:46:45 29.354- 29.394
TISAT 1 30 Mar 01:34:56 01:36:48 12° 269° (W) 01:38:26 437.305
ITUPSAT 1 30 Mar 01:44:28 01:49:17 80° 258° (WSW) 01:54:08 437.325
ITAMSAT 1 30 Mar 01:58:29 02:01:32 16° 92° (E) 02:04:49 435.822/435.867
YUBILEINY 30 Mar 02:20:59 02:28:50 36° 272° (W) 02:36:25 435.215
Oscar 19 30 Mar 02:29:27 02:34:37 68° 285° (WNW) 02:39:45 437.125/150
SWISSCUBE 30 Mar 02:33:29 02:37:12 21° 266° (W) 02:40:49 437.505
KKS-1 30 Mar 02:34:17 02:38:40 63° 75° (ENE) 02:43:04 437.445
BEESAT 30 Mar 02:36:20 02:40:04 22° 266° (W) 02:43:41 436.000
Gurwin Techsat 1B 30 Mar 02:49:08 02:54:12 44° 99° (E) 02:59:16 435.225
SO-50 30 Mar 02:50:00 02:53:14 18° 47° (NE) 02:56:36 436.795
STARS 30 Mar 03:04:56 03:09:19 90° 140° (SE) 03:13:43 437.465
HORYU 2 30 Mar 03:07:47 03:09:30 12° 91° (E) 03:11:30 437.375
JAS-2 30 Mar 03:12:56 03:13:15 10° 82° (E) 03:14:17 435.910
ITAMSAT 1 30 Mar 03:36:22 03:41:22 49° 287° (WNW) 03:46:19 435.822/435.867
RS-15 30 Mar 03:44:33 03:55:44 54° 53° (NE) 04:07:29 29.354- 29.394
VERMONT LUNAR 30 Mar 03:53:18 03:55:55 22° 146° (SE) 03:58:35 437.305
AIST 1 30 Mar 04:01:47 04:06:09 67° 95° (E) 04:10:32
O/OREOS (USA 219) 30 Mar 04:12:12 04:16:44 62° 292° (WNW) 04:21:19 437.305
MOZHAYETS 4 30 Mar 04:13:44 04:17:59 39° 73° (ENE) 04:22:19
SO-50 30 Mar 04:29:21 04:34:13 57° 244° (WSW) 04:38:59 436.795
Gurwin Techsat 1B 30 Mar 04:30:03 04:33:54 20° 292° (WNW) 04:37:33 435.225
ISS 30 Mar 04:34:32 04:36:42 17° 30° (NNE) 04:38:55 145.825
PHONESAT 2.4 30 Mar 04:39:01 04:41:43 21° 145° (SE) 04:44:27 2401.200-2431.200
HORYU 2 30 Mar 04:42:08 04:46:31 50° 286° (WNW) 04:50:51 437.375
AO-7 30 Mar 04:44:39 04:52:55 69° 104° (ESE) 05:01:11 29.400- 29.500
GONETS M04 30 Mar 04:46:31 04:47:21 10° 59° (ENE) 04:49:03
AUBIESAT-1 30 Mar 04:50:03 04:53:48 43° 69° (ENE) 04:57:56 437.475
JAS-2 30 Mar 04:52:07 04:59:50 76° 101° (ESE) 05:06:48 435.910
M-CUBED/EXP-1 PRIME 30 Mar 05:14:56 05:18:50 79° 253° (WSW) 05:23:09 437.505
VERMONT LUNAR 30 Mar 05:30:06 05:33:25 65° 339° (NNW) 05:36:46 437.305
STRAND 1 30 Mar 05:31:57 05:33:39 12° 65° (ENE) 05:35:40 437.568
MOZHAYETS 4 30 Mar 05:52:22 05:55:25 17° 268° (W) 05:58:16
RS-15 30 Mar 05:57:22 06:08:02 42° 251° (WSW) 06:18:49 29.354- 29.394
CUBESAT XI-V 30 Mar 06:02:34 06:07:00 43° 74° (ENE) 06:11:28 437.345
CUTE-I 30 Mar 06:03:16 06:07:03 20° 93° (E) 06:11:01 437.470
Cubesat XI-IV 30 Mar 06:03:37 06:07:29 21° 93° (E) 06:11:30 437.490
ISS 30 Mar 06:10:11 06:13:17 45° 227° (SW) 06:16:22 145.825
PHONESAT 2.4 30 Mar 06:16:19 06:19:50 72° 338° (NNW) 06:23:22 2401.200-2431.200
AUBIESAT-1 30 Mar 06:27:13 06:29:02 12° 267° (W) 06:30:41 437.475
PRISM 30 Mar 06:33:02 06:37:15 80° 77° (ENE) 06:41:29 437.425
GONETS M04 30 Mar 06:37:29 06:46:16 69° 81° (E) 06:55:05
CUSAT 1 30 Mar 06:37:32 06:38:54 11° 74° (ENE) 06:40:44 437.405
JAS-2 30 Mar 06:38:43 06:44:02 20° 298° (WNW) 06:48:47 435.910
AO-7 30 Mar 06:38:45 06:45:08 24° 300° (WNW) 06:51:13 29.400- 29.500
STRAND 1 30 Mar 07:07:11 07:12:20 73° 259° (W) 07:17:29 437.568
VERMONT LUNAR 30 Mar 07:08:30 07:11:27 28° 355° (N) 07:14:26 437.305
DANDE 30 Mar 07:29:14 07:33:02 29° 80° (E) 07:37:58 436.750
CUBESAT XI-V 30 Mar 07:41:45 07:44:42 16° 269° (W) 07:47:25 437.345
CUTE-I 30 Mar 07:42:22 07:47:20 41° 288° (WNW) 07:52:16 437.470
Cubesat XI-IV 30 Mar 07:42:48 07:47:46 40° 288° (WNW) 07:52:41 437.490
PHONESAT 2.4 30 Mar 07:55:20 07:58:30 31° 355° (N) 08:01:42 2401.200-2431.200
CUSAT 1 30 Mar 08:17:03 08:21:40 66° 263° (W) 08:27:52 437.405
GONETS M04 30 Mar 08:36:02 08:42:27 22° 276° (W) 08:48:24
BRITE-PL 30 Mar 08:36:45 08:40:40 36° 98° (E) 08:44:50 437.365/2234.400
VERMONT LUNAR 30 Mar 08:46:29 08:49:38 37° 13° (NNE) 08:52:48 437.305
CANX-2 30 Mar 08:47:37 08:51:20 28° 96° (E) 08:55:04 2200.000
CUTE 1.7 + AOD 2 30 Mar 09:01:13 09:05:12 36° 97° (E) 09:09:11 437.475
DOVE 4 30 Mar 09:03:53 09:07:48 32° 97° (E) 09:11:59 437.250
DANDE 30 Mar 09:12:35 09:16:17 23° 263° (W) 09:20:41 436.750
GOMX 1 30 Mar 09:18:52 09:23:12 75° 100° (E) 09:27:47 467.674
BEESAT 2 30 Mar 09:20:31 09:23:56 26° 113° (ESE) 09:27:28 435.950
AAUSAT CUBESAT 2 30 Mar 09:22:26 09:26:22 37° 97° (E) 09:30:17 437.432
HO-68 30 Mar 09:28:22 09:35:34 74° 103° (ESE) 09:42:46 435.675
SEEDS 30 Mar 09:28:57 09:33:14 67° 101° (ESE) 09:37:29 437.485
PHONESAT 2.4 30 Mar 09:34:00 09:37:20 37° 12° (NNE) 09:40:41 2401.200-2431.200
UNISAT 6 30 Mar 09:34:07 09:36:28 15° 69° (ENE) 09:39:02 437.425
TIGRISAT 30 Mar 09:43:21 09:46:15 19° 70° (ENE) 09:49:18 435.000
COMPASS 1 30 Mar 09:50:03 09:54:19 83° 285° (WNW) 09:58:34 437.405
Oscar 11 30 Mar 09:54:15 09:58:22 39° 98° (E) 10:02:27 145.826/435.025
BEESAT 3 30 Mar 09:55:48 09:59:52 88° 119° (ESE) 10:04:01 437.485
QB50P1 30 Mar 10:01:32 10:03:55 15° 69° (ENE) 10:06:30 145.935-145.965
DUCHIFAT 1 30 Mar 10:02:50 10:05:15 16° 69° (ENE) 10:07:50 145.980
FUNcube-1 30 Mar 10:06:43 10:10:29 28° 96° (E) 10:14:23 145.935
ANTELSAT 30 Mar 10:12:54 10:16:54 43° 74° (ENE) 10:21:00 437.575/2403.000
UWE-3 30 Mar 10:13:01 10:17:15 42° 98° (E) 10:21:36 435.000/436.395/437.385
CINEMA 3 30 Mar 10:13:50 10:18:19 78° 282° (WNW) 10:22:59 145.822/145.860
QB50P2 30 Mar 10:15:42 10:19:00 23° 71° (ENE) 10:22:23 145.880/145.840
BRITE-PL 30 Mar 10:16:26 10:19:02 15° 289° (WNW) 10:21:31 437.365/2234.400
ZACube-1 30 Mar 10:19:39 10:23:49 40° 98° (E) 10:28:04 437.345
CUBEBUG 2 30 Mar 10:19:48 10:24:14 64° 101° (E) 10:28:49 437.445
VELOX 1 30 Mar 10:22:25 10:23:43 11° 91° (E) 10:25:18 145.980
CANX-2 30 Mar 10:23:51 10:27:07 21° 289° (WNW) 10:30:16 2200.000
VERMONT LUNAR 30 Mar 10:24:08 10:27:26 56° 208° (SSW) 10:30:45 437.305
AISAT 30 Mar 10:26:45 10:28:53 14° 92° (E) 10:31:16 437.250
